Preview of NWS' New Version of Forecast
This preview is not operational and should not be used for support decisions.

Regional Weather Roundup (RWR)

Issued by National Weather Service (NWS)

                            
000
ASUS44 KJAN 231010
RWRMS 

MISSISSIPPI HOURLY WEATHER ROUNDUP
NATIONAL WEATHER SERVICE JACKSON MS
500 AM CDT SUN JUN 23 2019

NOTE: "FAIR: INDICATES FEW OR NO CLOUDS BELOW 12,000 FEET WITH NO
SIGNIFICANT WEATHER AND/OR OBSTRUCTIONS TO VISIBILITY.

MSZ001>002-007>008-010>013-018>021-025>028-034>036-231100-
NORTHWEST MISSISSIPPI
  
CITY           SKY/WX    TMP DP  RH WIND       PRES   REMARKS
BATESVILLE     PTSUNNY   77  73  88 SW6       29.97S                  
CLARKSDALE     CLEAR     82  82 100 S8G14     29.96S HX  97           
CLEVELAND      FAIR      79  79 100 SW10      29.97S                  
GREENWOOD      FAIR      79  76  90 SW8       29.98S                  
GREENVILLE     FAIR      80  76  87 SW12      29.97S                  
OLIVE BRANCH     N/A     70 N/A N/A S7        29.95F                  
OXFORD         FAIR      70  70 100 VRB5      29.99S                  
TUNICA           N/A     73  72  94 S7        29.95F                  
WINONA         FAIR      76  76 100 S3        30.00S                  
$$

MSZ003>006-009-014>017-022>024-029>033-037>039-231100-
NORTHEAST MISSISSIPPI
  
CITY           SKY/WX    TMP DP  RH WIND       PRES   REMARKS
ABERDEEN       FAIR      70  64  83 CALM      30.01R                  
COLUMBUS AFB   FAIR      72  70  94 E5        29.99R                  
CORINTH        FAIR      70  68  94 SE5       30.00R                  
GOLDN TRIANGLE FAIR      71  70  96 S5        30.00R                  
STARKVILLE       N/A     70  68  94 CALM      30.01R                  
TUPELO         FAIR      72  68  87 SE5       29.99R                  
$$

MSZ040-058-231100-
CENTRAL MISSISSIPPI
  
CITY           SKY/WX    TMP DP  RH WIND       PRES   REMARKS
JACKSON INTL   FAIR      79  75  87 S8        30.00S                  
JACKSON HAWKNS FAIR      79  77  94 S9        30.01S                  
MADISON        CLOUDY    77  77 100 S9G17     30.00S                  
MERIDIAN KEY   CLOUDY    80  76  87 SW7       30.02R                  
MERIDIAN NAS   MOCLDY    79  75  87 W7        30.01S                  
RAYMOND        FAIR      79  79 100 S7        29.99F                  
VICKSBURG VKS  SUNNY     79  79 100 S6        30.00S                  
$$

MSZ059>079-231100-
SOUTH MISSISSIPPI
  
CITY           SKY/WX    TMP DP  RH WIND       PRES   REMARKS
BROOKHAVEN       N/A     79  77  94 E8G15     30.03S                  
HATTIESBURG    FAIR      78  75  90 S6        30.03F                  
LAUREL         SUNNY     79  76  91 S7        30.03R                  
MCCOMB         MOCLDY    78  76  93 S7        30.02F FOG              
NATCHEZ        MOCLDY    78  76  93 S8        30.01R                  
PINE BELT      FAIR      77  76  96 S5        30.03F                  
$$

MSZ080>082-231100-
COASTAL MISSISSIPPI
  
CITY           SKY/WX    TMP DP  RH WIND       PRES   REMARKS
BILOXI         CLOUDY    83  76  80 S13       30.03S HX  91           
PASCAGOULA     FAIR      81  76  84 S5        30.03F                  
GULFPORT       FAIR      83  76  79 S7        30.02F HX  91           
$$

LAZ007>009-015>016-023>026-231100-
NORTHEAST LOUISIANA
  
CITY           SKY/WX    TMP DP  RH WIND       PRES   REMARKS
BASTROP        CLOUDY    80  79  97 S6        30.00R                  
TALLULAH/VBURG FAIR      76  75  97 CALM      30.00R                  
VIDALIA        FAIR      79  76  92 SE7       29.98F                  
$$